1512950400.52,20064,2.75,71528.0,-8.33,-10.79,-11.51,0,*53
1512950401.75,20065,2.75,71522.3,-8.33,-10.93,-11.73,0,*56
1512950403.02,20066,2.75,71518.0,-8.35,-11.11,-11.93,0,*56
1512950404.28,20067,2.75,71520.5,-8.35,-11.23,-12.11,0,*5F
1512950405.57,20068,2.75,71530.0,-8.35,-11.29,-12.35,0,*5C
1512950406.83,20069,2.75,71532.0,-8.35,-11.51,-12.47,0,*57
1512950408.12,20070,2.75,71534.3,-8.35,-11.55,-12.61,0,*5F
1512950409.38,20071,2.75,71538.3,-8.33,-11.51,-12.75,0,*59
1512950410.61,20072,2.75,71538.5,-8.33,-11.77,-13.43,0,*5A
1512950411.86,20073,2.75,71542.3,-8.33,-12.07,-13.79,0,*56
1512950413.09,20074,2.75,71542.5,-8.33,-12.47,-14.43,0,*5B
1512950414.3,20075,2.75,71548.3,-8.33,-13.07,-15.07,0,*5E
1512950415.53,20076,2.75,71544.5,-8.29,-13.65,-15.89,0,*54
1512950416.77,20077,2.75,71546.8,-8.33,-14.43,-16.97,0,*51
1512950417.98,20078,2.75,71534.0,-8.33,-15.49,-17.83,0,*51
1512950419.21,20079,2.75,71538.3,-8.33,-16.31,-18.45,0,*59
1512950420.46,20080,2.75,71540.8,-8.33,-17.25,-18.59,0,*56
1512950421.69,20081,2.75,71544.0,-8.33,-17.73,-18.89,0,*59
1512950422.92,20082,2.75,71542.3,-8.33,-18.49,-19.31,0,*5E
1512950424.18,20083,2.75,71540.3,-8.33,-18.93,-19.65,0,*59
1512950425.4,20084,2.75,71538.8,-8.33,-19.17,-19.71,0,*56
1512950426.64,20085,2.75,71538.3,-8.29,-19.37,-19.85,0,*55
1512950427.85,20086,2.75,71542.8,-8.33,-19.37,-19.71,0,*56
1512950429.11,20087,2.75,71548.0,-8.35,-19.07,-19.27,0,*51
1512950430.34,20088,2.75,71554.3,-8.35,-18.65,-18.83,0,*54
1512950431.59,20089,2.75,71554.3,-8.35,-18.01,-19.07,0,*5A
1512950432.85,20090,2.75,71546.3,-8.35,-17.79,-19.47,0,*56
1512950434.08,20091,2.75,71540.3,-8.35,-17.87,-20.29,0,*54
1512950435.32,20092,2.75,71524.5,-8.33,-18.49,-21.03,0,*55
1512950436.56,20093,2.75,71524.8,-8.33,-19.31,-21.43,0,*5E
1512950437.77,20094,2.75,71528.0,-8.33,-19.99,-20.93,0,*57
1512950439.03,20095,2.75,71532.8,-8.33,-19.85,-19.41,0,*5E
1512950440.24,20096,2.75,71540.3,-8.33,-19.03,-17.83,0,*53
1512950441.5,20097,2.75,71540.0,-8.33,-17.55,-16.09,0,*5C
1512950442.76,20098,2.75,71538.3,-8.35,-15.95,-14.79,0,*5E
1512950443.98,20099,2.75,71534.5,-8.33,-14.15,-14.19,0,*56
1512950445.21,20100,2.75,71530.8,-8.33,-13.33,-14.19,0,*54
1512950446.5,20101,2.75,71520.8,-8.35,-13.33,-14.51,0,*5F
1512950447.76,20102,2.75,71520.3,-8.35,-13.65,-15.57,0,*58
1512950449.04,20103,2.75,71504.8,-8.35,-14.79,-17.03,0,*50
1512950450.25,20104,2.75,71510.5,-8.33,-16.03,-17.73,0,*59
1512950451.49,20105,2.75,71504.3,-8.29,-16.69,-17.69,0,*54
1512950452.72,20106,2.75,71502.5,-8.29,-16.23,-18.17,0,*5F
1512950453.96,20107,2.75,71502.5,-8.33,-16.69,-20.09,0,*5F
1512950455.22,20108,2.75,71510.3,-8.33,-17.97,-21.83,0,*53
1512950456.45,20109,2.75,71508.0,-8.33,-19.31,-23.89,0,*58
1512950457.72,20110,2.75,71502.0,-8.33,-21.23,-25.71,0,*59
1512950458.93,20111,2.75,71516.8,-8.33,-22.63,-25.61,0,*5E
1512950460.15,20112,2.75,71490.0,-8.33,-23.59,-25.35,0,*54
1512950461.41,20113,2.75,71498.5,-8.29,-23.29,-24.71,0,*58
1512950462.65,20114,2.75,71504.5,-8.29,-22.93,-25.45,0,*59
1512950463.89,20115,2.75,71498.5,-8.33,-24.41,-26.39,0,*52
1512950465.1,20116,2.75,71502.0,-8.37,-26.39,-26.65,0,*51
1512950466.39,20117,2.75,71490.0,-8.35,-28.09,-26.93,0,*56
1512950467.65,20118,2.75,71510.3,-8.35,-28.69,-28.25,0,*5C
1512950468.93,20119,2.75,71508.3,-8.35,-29.17,-28.79,0,*5C
1512950470.22,20120,2.75,71504.0,-8.35,-29.13,-28.59,0,*50
1512950471.47,20121,2.75,71512.0,-8.35,-29.17,-28.97,0,*57
1512950472.74,20122,2.75,71514.8,-8.35,-28.85,-28.63,0,*55
1512950474.01,20123,2.75,71520.0,-8.35,-28.59,-28.15,0,*54
1512950475.27,20124,2.75,71530.0,-8.37,-28.25,-28.25,0,*59
1512950476.5,20125,2.75,71534.5,-8.33,-28.31,-28.79,0,*50
1512950477.71,20126,2.75,71538.3,-8.37,-28.31,-28.85,0,*54
1512950478.97,20127,2.75,71530.3,-8.37,-28.25,-28.79,0,*53
1512950480.2,20128,2.75,71528.3,-8.37,-28.47,-28.85,0,*5B
1512950481.43,20129,2.75,71522.3,-8.37,-28.43,-28.85,0,*5E
1512950482.67,20130,2.75,71532.0,-8.37,-28.47,-28.85,0,*52
1512950483.92,20131,2.75,71534.3,-8.37,-28.43,-28.79,0,*54
1512950485.15,20132,2.75,71534.0,-8.39,-28.53,-29.07,0,*50
1512950486.4,20133,2.75,71536.5,-8.41,-28.63,-29.01,0,*5B
1512950487.63,20134,2.75,71534.8,-8.37,-28.69,-29.13,0,*54
1512950488.86,20135,2.81,71528.5,-8.39,-28.85,-29.23,0,*5A
1512950490.14,20136,2.75,71476.8,-8.39,-28.91,-29.17,0,*5B
1512950491.41,20137,2.75,71462.0,-8.41,-29.01,-28.91,0,*52
1512950492.67,20138,2.75,71452.0,-8.41,-29.17,-28.91,0,*5A
1512950493.93,20139,2.75,71472.5,-8.39,-29.01,-28.69,0,*54
1512950495.19,20140,2.75,71480.3,-8.39,-29.01,-28.53,0,*53
1512950496.43,20141,2.81,71480.0,-8.39,-28.69,-28.31,0,*59
1512950497.67,20142,2.75,71480.3,-8.41,-28.63,-28.15,0,*59
1512950498.93,20143,2.75,71480.0,-8.41,-28.63,-27.99,0,*53
1512950500.18,20144,2.75,71486.5,-8.39,-28.47,-27.71,0,*5B
1512950501.44,20145,2.81,71488.3,-8.39,-28.37,-27.45,0,*5A
1512950502.65,20146,2.75,71488.8,-8.41,-28.31,-27.03,0,*52
1512950503.88,20147,2.75,71486.5,-8.41,-28.31,-26.71,0,*57
1512950505.08,20148,2.75,71482.0,-8.41,-28.15,-26.45,0,*59
1512950506.33,20149,2.75,71476.5,-8.41,-28.05,-26.03,0,*5B
1512950507.59,20150,2.81,71494.0,-8.41,-27.83,-25.55,0,*52
1512950508.82,20151,2.75,71488.0,-8.41,-27.51,-24.83,0,*56
1512950510.07,20152,2.75,71492.3,-8.41,-27.23,-23.99,0,*5C
1512950511.33,20153,2.75,71488.8,-8.43,-27.35,-23.75,0,*5A
1512950512.6,20154,2.81,71498.5,-8.43,-27.23,-23.29,0,*53
1512950513.86,20155,2.75,71496.5,-8.43,-27.35,-22.63,0,*5A
1512950515.09,20156,2.75,71494.8,-8.41,-27.19,-22.07,0,*57
1512950516.33,20157,2.75,71502.8,-8.43,-27.35,-21.73,0,*5A
1512950517.56,20158,2.81,71506.5,-8.39,-27.13,-21.13,0,*5A
1512950518.82,20159,2.81,71510.0,-8.45,-26.77,-20.39,0,*5A
1512950520.06,20160,2.75,71500.3,-8.41,-26.03,-19.65,0,*54
1512950521.32,20161,2.75,71500.5,-8.43,-25.39,-18.93,0,*55
1512950522.54,20162,2.75,71496.0,-8.43,-24.57,-18.17,0,*53
1512950523.78,20163,2.75,71500.5,-8.43,-23.59,-17.83,0,*59
1512950525.04,20164,2.75,71508.8,-8.43,-22.67,-17.25,0,*5E
1512950526.3,20165,2.75,71508.0,-8.43,-21.87,-16.97,0,*5A
1512950527.53,20166,2.75,71500.5,-8.43,-21.17,-16.83,0,*55
1512950528.75,20167,2.81,71502.5,-8.41,-20.59,-16.79,0,*58
1512950529.97,20168,2.75,71504.3,-8.41,-20.19,-16.89,0,*5C
1512950531.25,20169,2.75,71498.3,-8.43,-19.81,-17.07,0,*53
1512950532.53,20170,2.81,71494.3,-8.45,-19.57,-17.07,0,*56
1512950533.8,20171,2.75,71478.3,-8.43,-19.37,-17.07,0,*57
1512950535.06,20172,2.81,71490.3,-8.43,-19.23,-16.97,0,*59
1512950536.3,20173,2.81,71494.5,-8.43,-19.07,-16.97,0,*5E
1512950537.53,20174,2.81,71496.0,-8.41,-18.99,-16.65,0,*50
1512950538.76,20175,2.81,71500.3,-8.41,-18.89,-16.41,0,*56
1512950540.0,20176,2.81,71502.0,-8.41,-18.83,-16.13,0,*58
1512950541.21,20177,2.81,71494.0,-8.41,-18.73,-15.75,0,*55
1512950542.46,20178,2.81,71496.5,-8.41,-18.69,-15.39,0,*59
1512950543.69,20179,2.75,71496.0,-8.41,-18.45,-15.01,0,*5D
1512950544.93,20180,2.81,71488.0,-8.41,-18.41,-14.55,0,*5F
1512950546.18,20181,2.75,71490.5,-8.39,-17.93,-14.11,0,*51
1512950547.43,20182,2.75,71492.5,-8.39,-17.55,-13.69,0,*50
1512950548.66,20183,2.81,71506.3,-8.41,-17.03,-13.23,0,*53
1512950549.88,20184,2.75,71506.5,-8.41,-16.59,-12.89,0,*5B
1512950551.13,20185,2.81,71510.5,-8.39,-16.03,-12.65,0,*58
1512950552.36,20186,2.81,71512.3,-8.39,-15.63,-12.39,0,*57
1512950553.6,20187,2.81,71518.3,-8.41,-15.15,-11.97,0,*5F
1512950554.88,20188,2.81,71522.8,-8.39,-14.83,-11.73,0,*5B
1512950556.15,20189,2.81,71520.5,-8.39,-14.51,-11.45,0,*50
1512950557.38,20190,2.75,71518.0,-8.39,-14.23,-11.19,0,*54
1512950558.65,20191,2.75,71522.3,-8.39,-13.97,-11.01,0,*54
1512950559.89,20192,2.75,71522.0,-8.39,-13.69,-10.97,0,*58
1512950561.12,20193,2.75,71526.8,-8.39,-13.43,-10.97,0,*51
1512950562.38,20194,2.75,71526.8,-8.39,-13.11,-10.71,0,*59
1512950563.67,20195,2.81,71528.3,-8.39,-12.79,-10.63,0,*54
1512950564.93,20196,2.81,71526.8,-8.39,-12.53,-10.57,0,*58
1512950566.17,20197,2.81,71528.5,-8.39,-12.25,-10.45,0,*5B
1512950567.44,20198,2.81,71532.5,-8.37,-11.93,-10.41,0,*50
1512950568.68,20199,2.81,71532.3,-8.37,-11.77,-10.27,0,*5B
1512950569.92,20200,2.75,71530.0,-8.37,-11.55,-10.15,0,*59
1512950571.16,20201,2.75,71532.5,-8.39,-11.45,-10.05,0,*56
1512950572.42,20202,2.81,71536.0,-8.39,-11.33,-10.05,0,*54
1512950573.63,20203,2.81,71536.8,-8.37,-11.15,-10.01,0,*5B
1512950574.85,20204,2.75,71532.8,-8.37,-11.11,-10.01,0,*58
1512950576.07,20205,2.75,71528.5,-8.37,-11.01,-10.01,0,*58
1512950577.32,20206,2.81,71530.8,-8.35,-10.97,-10.01,0,*57
1512950578.56,20207,2.81,71520.0,-8.35,-10.97,-10.01,0,*56
1512950579.78,20208,2.75,71520.3,-8.37,-11.01,-10.09,0,*5D
1512950580.99,20209,2.75,71528.0,-8.37,-11.01,-10.01,0,*54
1512950582.23,20210,2.75,71534.3,-8.35,-11.01,-9.97,0,*69
1512950583.44,20211,2.75,71538.0,-8.37,-11.01,-9.89,0,*65
1512950584.67,20212,2.75,71542.3,-8.35,-10.93,-9.89,0,*6E
1512950585.89,20213,2.81,71544.3,-8.37,-10.79,-9.75,0,*6A
1512950587.15,20214,2.81,71546.8,-8.35,-10.45,-9.61,0,*65
1512950588.38,20215,2.81,71540.0,-8.37,-10.31,-9.61,0,*65
1512950589.61,20216,2.75,71530.0,-8.35,-10.19,-9.71,0,*6F
1512950590.83,20217,2.81,71520.0,-8.35,-10.09,-9.89,0,*68
1512950592.05,20218,2.81,71522.0,-8.35,-10.09,-9.97,0,*68
1512950593.26,20219,2.81,71520.0,-8.33,-10.05,-10.15,0,*51
1512950594.47,20220,2.81,71512.8,-8.33,-10.15,-10.49,0,*53
1512950595.72,20221,2.81,71504.8,-8.33,-10.35,-10.67,0,*5C
1512950597.01,20222,2.81,71520.0,-8.35,-10.67,-10.79,0,*51
1512950598.28,20223,2.75,71526.3,-8.33,-10.63,-10.75,0,*5E
1512950599.49,20224,2.81,71538.0,-8.33,-10.49,-10.53,0,*55
1512950600.7,20225,2.81,71530.3,-8.33,-10.35,-10.53,0,*5F
1512950601.93,20226,2.81,71516.3,-8.33,-10.53,-10.75,0,*58
1512950603.17,20227,2.81,71488.0,-8.33,-10.79,-10.93,0,*59
1512950604.4,20228,2.81,71498.8,-8.35,-10.85,-11.11,0,*58
1512950605.61,20229,2.81,71514.8,-8.29,-10.89,-11.45,0,*59
1512950606.83,20230,2.81,71524.5,-8.33,-10.97,-12.21,0,*54
1512950608.02,20231,2.81,71534.5,-8.33,-11.19,-13.47,0,*53
1512950609.24,20232,2.81,71544.5,-8.33,-11.45,-14.89,0,*5C
1512950610.51,20233,2.81,71550.3,-8.29,-12.35,-17.21,0,*53
1512950611.71,20234,2.81,71540.0,-8.29,-13.15,-16.97,0,*5B
1512950612.91,20235,2.81,71540.8,-8.33,-13.47,-16.45,0,*59
1512950614.18,20236,2.75,71528.3,-8.33,-14.01,-16.17,0,*58
1512950615.43,20237,2.81,71520.0,-8.33,-14.19,-16.17,0,*50
1512950616.67,20238,2.75,71528.3,-8.33,-14.61,-16.09,0,*5F
1512950617.87,20239,2.81,71526.8,-8.33,-14.61,-16.03,0,*54
1512950619.15,20240,2.81,71532.0,-8.29,-14.47,-16.31,0,*54
1512950620.41,20241,2.81,71534.8,-8.29,-14.47,-16.65,0,*54
1512950621.66,20242,2.81,71536.0,-8.33,-14.47,-16.79,0,*51
1512950622.89,20243,2.81,71540.8,-8.33,-14.43,-16.83,0,*51
1512950624.16,20244,2.81,71536.0,-8.33,-14.43,-17.45,0,*5D
1512950625.39,20245,2.75,71540.0,-8.33,-14.65,-17.97,0,*57
1512950626.64,20246,2.75,71538.8,-8.33,-14.93,-18.93,0,*56
1512950627.88,20247,2.81,71540.5,-8.33,-16.17,-20.43,0,*5F
1512950629.15,20248,2.81,71524.5,-8.33,-17.21,-20.49,0,*5E
1512950630.41,20249,2.81,71520.0,-8.33,-17.55,-20.35,0,*57
1512950631.65,20250,2.81,71510.3,-8.29,-18.11,-21.03,0,*5F
1512950632.89,20251,2.81,71522.5,-8.33,-18.93,-21.39,0,*56
1512950634.13,20252,2.81,71514.3,-8.33,-19.57,-21.39,0,*5C
1512950635.38,20253,2.81,71520.8,-8.33,-20.49,-21.33,0,*52
1512950636.62,20254,2.81,71514.5,-8.33,-21.17,-21.03,0,*5C
1512950637.83,20255,2.75,71508.8,-8.33,-21.39,-20.59,0,*5F
1512950639.07,20256,2.81,71520.5,-8.33,-21.57,-20.25,0,*5F
1512950640.33,20257,2.81,71514.0,-8.33,-21.67,-19.65,0,*53
1512950641.59,20258,2.81,71516.5,-8.35,-21.23,-18.99,0,*58
1512950642.8,20259,2.81,71524.3,-8.33,-20.43,-18.79,0,*56
1512950644.0,20260,2.81,71522.3,-8.33,-19.99,-18.25,0,*58
1512950645.22,20261,2.81,71510.5,-8.33,-19.71,-17.83,0,*5C
1512950646.43,20262,2.81,71498.5,-8.33,-19.51,-17.69,0,*59
1512950647.72,20263,2.81,71510.0,-8.35,-19.57,-17.63,0,*52
1512950649.01,20264,2.81,71524.5,-8.35,-19.61,-17.79,0,*5B
1512950650.27,20265,2.81,71524.0,-8.35,-19.91,-17.79,0,*55
1512950651.49,20266,2.81,71526.0,-8.33,-20.09,-17.55,0,*55
1512950652.73,20267,2.81,71512.8,-8.35,-20.39,-17.31,0,*53
1512950653.98,20268,2.75,71498.8,-8.35,-20.49,-16.97,0,*56
1512950655.22,20269,2.81,71486.8,-8.35,-20.39,-16.41,0,*5B
1512950656.42,20270,2.81,71484.8,-8.37,-20.29,-15.99,0,*56
1512950657.69,20271,2.81,71480.0,-8.35,-19.75,-15.39,0,*5C
1512950658.95,20272,2.81,71494.5,-8.35,-19.37,-14.93,0,*58
1512950660.21,20273,2.81,71492.3,-8.35,-18.55,-14.23,0,*57
1512950661.47,20274,2.81,71492.0,-8.35,-18.01,-13.65,0,*54
1512950662.75,20275,2.81,71474.3,-8.35,-17.63,-13.33,0,*5D
1512950664.01,20276,2.81,71478.0,-8.35,-16.89,-12.79,0,*54
1512950665.25,20277,2.81,71488.3,-8.35,-16.37,-12.25,0,*59
1512950666.5,20278,2.81,71480.0,-8.35,-15.95,-11.77,0,*59
1512950667.77,20279,2.81,71472.5,-8.35,-15.35,-11.41,0,*57
1512950669.05,20280,2.81,71498.0,-8.35,-14.93,-11.29,0,*52
1512950670.32,20281,2.81,71498.5,-8.35,-14.47,-11.01,0,*50
1512950671.61,20282,2.81,71496.5,-8.35,-13.97,-10.79,0,*57
1512950672.9,20283,2.81,71510.3,-8.35,-13.79,-10.79,0,*56
1512950674.16,20284,2.81,71510.3,-8.35,-13.37,-10.53,0,*53
1512950675.37,20285,2.81,71508.3,-8.33,-13.15,-10.49,0,*5F
1512950676.61,20286,2.81,71514.5,-8.33,-12.75,-10.27,0,*53
1512950677.82,20287,2.81,71518.5,-8.33,-12.47,-10.23,0,*57
1512950679.06,20288,2.81,71512.5,-8.33,-12.15,-10.23,0,*5F
1512950680.29,20289,2.81,71512.5,-8.33,-11.89,-10.09,0,*50
1512950681.53,20290,2.81,71518.0,-8.29,-11.77,-10.09,0,*52
1512950682.76,20291,2.81,71522.8,-8.33,-11.63,-10.05,0,*51
1512950684.0,20292,2.81,71522.0,-8.33,-11.59,-9.97,0,*68
1512950685.23,20293,2.81,71522.8,-8.33,-11.37,-10.05,0,*52
1512950686.47,20294,2.81,71520.5,-8.33,-11.33,-10.15,0,*50
1512950687.7,20295,2.81,71528.3,-8.33,-11.73,-10.23,0,*50
1512950688.95,20296,2.81,71534.0,-8.33,-11.93,-10.27,0,*59
1512950690.17,20297,2.81,71530.3,-8.33,-12.21,-10.15,0,*53
1512950691.41,20298,2.81,71524.5,-8.29,-12.35,-10.15,0,*52
1512950692.65,20299,2.81,71524.0,-8.33,-12.35,-10.09,0,*55
1512950693.89,20300,2.81,71514.3,-8.33,-12.15,-10.05,0,*5A
1512950695.12,20301,2.81,71506.5,-8.29,-12.07,-9.97,0,*60
1512950696.36,20302,2.81,71508.8,-8.29,-11.89,-10.05,0,*55
1512950697.59,20303,2.81,71516.5,-8.33,-11.59,-10.05,0,*52
1512950698.83,20304,2.81,71526.3,-8.29,-11.37,-10.05,0,*56
1512950700.03,20305,2.81,71534.3,-8.29,-11.19,-10.09,0,*57
1512950701.27,20306,2.81,71530.3,-8.29,-11.07,-10.23,0,*53
1512950702.52,20307,2.81,71530.0,-8.29,-10.93,-10.41,0,*5A
1512950703.76,20308,2.81,71526.0,-8.29,-10.89,-10.67,0,*5A
1512950705.01,20309,2.81,71524.5,-8.29,-10.97,-10.79,0,*5B
1512950706.25,20310,2.81,71522.5,-8.29,-11.07,-10.93,0,*5F
1512950707.46,20311,2.81,71522.8,-8.29,-11.19,-10.97,0,*55
1512950708.67,20312,2.81,71522.0,-8.29,-11.23,-11.11,0,*50
1512950709.91,20313,2.81,71516.8,-8.29,-11.33,-11.19,0,*58
1512950711.15,20314,2.81,71526.8,-8.29,-11.37,-11.23,0,*52
1512950712.41,20315,2.81,71528.0,-8.33,-11.37,-11.07,0,*5E
1512950713.67,20316,2.81,71530.5,-8.29,-11.33,-11.07,0,*52
1512950714.91,20317,2.81,71534.0,-8.29,-11.33,-11.11,0,*54
1512950716.15,20318,2.81,71518.8,-8.29,-11.07,-11.19,0,*54
1512950717.4,20319,2.81,71516.3,-8.27,-10.85,-11.29,0,*53
1512950718.66,20320,2.81,71518.0,-8.27,-10.85,-11.67,0,*53
1512950719.91,20321,2.81,71520.8,-8.27,-10.89,-12.15,0,*58
1512950721.16,20322,2.81,71520.5,-8.27,-11.19,-12.57,0,*55
1512950722.42,20323,2.81,71522.8,-8.27,-11.55,-13.23,0,*5E
1512950723.67,20324,2.81,71524.3,-8.27,-11.97,-14.11,0,*51
1512950724.91,20325,2.81,71530.3,-8.25,-12.53,-14.89,0,*58
1512950726.14,20326,2.81,71534.3,-8.27,-13.15,-16.45,0,*58
1512950727.4,20327,2.81,71546.5,-8.27,-14.15,-17.55,0,*5E
1512950728.66,20328,2.81,71540.0,-8.29,-14.93,-18.31,0,*5C
1512950729.87,20329,2.81,71534.8,-8.29,-15.49,-18.65,0,*5A
1512950731.11,20330,2.81,71530.3,-8.29,-15.89,-18.65,0,*5E
1512950732.34,20331,2.75,71520.3,-8.27,-16.41,-18.69,0,*5A
1512950733.6,20332,2.81,71522.8,-8.27,-16.65,-18.69,0,*5F
1512950734.85,20333,2.81,71520.3,-8.27,-16.89,-18.59,0,*5F
1512950736.13,20334,2.81,71528.0,-8.27,-17.17,-18.59,0,*5E
1512950737.39,20335,2.81,71532.8,-8.27,-17.31,-18.31,0,*55
1512950738.65,20336,2.81,71528.5,-8.27,-17.21,-18.11,0,*55
1512950739.94,20337,2.81,71530.8,-8.27,-17.21,-17.97,0,*55
1512950741.22,20338,2.81,71530.8,-8.27,-17.03,-17.79,0,*5A
1512950742.45,20339,2.81,71532.3,-8.25,-16.79,-17.63,0,*5E
1512950743.72,20340,2.81,71532.0,-8.27,-16.65,-17.35,0,*5C
1512950744.95,20341,2.81,71534.5,-8.27,-16.41,-16.93,0,*56
1512950746.21,20342,2.81,71534.0,-8.29,-16.17,-16.69,0,*5D
1512950747.45,20343,2.81,71534.5,-8.29,-15.95,-16.23,0,*5B
1512950748.66,20344,2.81,71530.3,-8.25,-15.63,-15.71,0,*5D
1512950749.9,20345,2.81,71530.3,-8.33,-15.43,-15.15,0,*5B
1512950751.15,20346,2.81,71536.8,-8.29,-15.01,-14.55,0,*50
1512950752.42,20347,2.81,71536.3,-8.29,-14.47,-13.87,0,*5A
1512950753.68,20348,2.81,71534.0,-8.29,-14.05,-13.29,0,*57
1512950754.95,20349,2.81,71520.3,-8.29,-13.33,-12.71,0,*58
1512950756.18,20350,2.81,71506.5,-8.33,-12.89,-12.15,0,*59
1512950757.42,20351,2.81,71510.3,-8.29,-12.43,-11.63,0,*57
1512950758.66,20352,2.81,71518.3,-8.29,-11.89,-11.23,0,*55
1512950759.92,20353,2.81,71532.5,-8.27,-11.59,-10.89,0,*56
1512950761.18,20354,2.81,71526.8,-8.27,-10.89,-10.63,0,*59
1512950762.44,20355,2.81,71498.8,-8.27,-10.63,-10.57,0,*5B
1512950763.7,20356,2.81,71512.3,-8.27,-10.49,-10.63,0,*57
1512950764.94,20357,2.81,71526.3,-8.25,-10.35,-10.75,0,*58
1512950766.17,20358,2.81,71526.0,-8.27,-10.31,-10.89,0,*52
1512950767.4,20359,2.81,71522.8,-8.27,-10.35,-11.19,0,*5F
1512950768.66,20360,2.81,71536.8,-8.27,-10.35,-11.59,0,*51
1512950769.93,20361,2.81,71536.8,-8.25,-10.63,-12.11,0,*5E
1512950771.21,20362,2.81,71536.5,-8.27,-10.75,-12.57,0,*5A
1512950772.43,20363,2.81,71540.0,-8.27,-10.85,-13.11,0,*57
1512950773.69,20364,2.81,71540.0,-8.27,-11.07,-13.73,0,*5F
1512950774.93,20365,2.81,71536.8,-8.25,-11.33,-14.29,0,*53
1512950776.21,20366,2.81,71548.8,-8.27,-11.59,-15.01,0,*55
1512950777.44,20367,2.81,71552.5,-8.25,-12.03,-15.57,0,*59
1512950778.7,20368,2.81,71550.3,-8.25,-12.53,-16.13,0,*50
1512950779.96,20369,2.81,71546.0,-8.27,-12.83,-16.79,0,*52
1512950781.17,20370,2.81,71550.8,-8.25,-13.23,-17.31,0,*5E
1512950782.4,20371,2.81,71550.8,-8.25,-13.69,-17.93,0,*59
1512950783.63,20372,2.81,71552.0,-8.25,-14.29,-18.55,0,*5C
1512950784.83,20373,2.81,71554.5,-8.25,-14.89,-18.83,0,*5C
1512950786.06,20374,2.81,71556.0,-8.25,-15.25,-18.89,0,*56
1512950787.3,20375,2.81,71550.5,-8.27,-15.57,-18.99,0,*51
1512950788.54,20376,2.81,71554.5,-8.27,-15.75,-18.73,0,*56
1512950789.75,20377,2.81,71554.5,-8.25,-15.71,-18.69,0,*5A
1512950790.95,20378,2.81,71552.8,-8.25,-15.99,-18.69,0,*53
1512950792.18,20379,2.81,71550.3,-8.27,-16.75,-19.03,0,*5C
1512950793.41,20380,2.81,71548.3,-8.25,-17.35,-19.27,0,*5B
1512950794.67,20381,2.81,71546.5,-8.25,-17.97,-19.81,0,*5E
1512950795.89,20382,2.81,71544.0,-8.25,-18.69,-20.09,0,*59
1512950797.13,20383,2.81,71542.8,-8.27,-19.13,-20.09,0,*56
1512950798.37,20384,2.81,71542.3,-8.25,-19.37,-20.19,0,*54
1512950799.62,20385,2.81,71528.8,-8.27,-19.81,-20.29,0,*59
1512950800.85,20386,2.81,71524.0,-8.27,-20.09,-20.39,0,*51
1512950802.06,20387,2.81,71520.0,-8.25,-20.25,-20.25,0,*51
1512950803.29,20388,2.81,71526.3,-8.27,-20.25,-19.91,0,*59
1512950804.55,20389,2.81,71524.8,-8.27,-19.95,-19.65,0,*52
1512950805.81,20390,2.81,71522.5,-8.27,-19.65,-19.51,0,*52
1512950807.02,20391,2.81,71526.5,-8.25,-19.47,-19.37,0,*51
1512950808.28,20392,2.81,71522.8,-8.27,-19.31,-19.13,0,*57
1512950809.51,20393,2.81,71530.5,-8.27,-18.99,-18.83,0,*5D
1512950810.75,20394,2.81,71518.5,-8.29,-18.79,-18.93,0,*5B
1512950811.98,20395,2.81,71526.3,-8.29,-18.65,-18.89,0,*5C
1512950813.23,20396,2.81,71536.3,-8.27,-18.73,-18.89,0,*56
1512950814.5,20397,2.81,71526.8,-8.27,-18.59,-18.59,0,*52
1512950815.71,20398,2.81,71530.3,-8.29,-18.65,-18.49,0,*5D
1512950816.95,20399,2.81,71532.5,-8.27,-18.45,-18.11,0,*5D
1512950818.22,20400,2.81,71532.0,-8.29,-18.31,-17.97,0,*56
1512950819.47,20401,2.81,71522.5,-8.27,-18.11,-17.79,0,*5B
1512950820.71,20402,2.81,71520.5,-8.27,-18.11,-17.69,0,*59
1512950821.96,20403,2.81,71522.0,-8.27,-18.21,-17.63,0,*51
1512950823.2,20404,2.81,71516.5,-8.27,-18.07,-17.35,0,*51
1512950824.49,20405,2.81,71516.8,-8.27,-17.97,-17.03,0,*53
1512950825.71,20406,2.81,71512.5,-8.25,-17.79,-16.93,0,*5A
1512950826.97,20407,2.81,71512.8,-8.27,-17.63,-16.59,0,*54
1512950828.21,20408,2.81,71526.0,-8.25,-17.49,-16.17,0,*5B
1512950829.47,20409,2.81,71522.0,-8.27,-17.07,-15.71,0,*51
1512950830.68,20410,2.81,71524.0,-8.25,-16.79,-15.11,0,*55
1512950831.91,20411,2.81,71520.0,-8.25,-16.31,-14.69,0,*56
1512950833.14,20412,2.81,71524.8,-8.25,-15.85,-14.23,0,*57
1512950834.39,20413,2.81,71524.8,-8.27,-15.57,-13.73,0,*59
1512950835.66,20414,2.81,71520.3,-8.27,-15.01,-13.37,0,*5D
1512950836.92,20415,2.81,71526.5,-8.27,-14.75,-12.97,0,*55
1512950838.17,20416,2.81,71526.0,-8.25,-14.43,-12.65,0,*5C
1512950839.44,20417,2.81,71532.8,-8.27,-14.01,-12.43,0,*5D
1512950840.71,20418,2.81,71534.8,-8.25,-13.83,-12.11,0,*5A
1512950841.94,20419,2.81,71534.0,-8.27,-13.69,-12.03,0,*5E
1512950843.2,20420,2.81,71536.3,-8.27,-13.43,-11.89,0,*5D
1512950844.46,20421,2.81,71536.3,-8.25,-13.37,-11.67,0,*5D
1512950845.72,20422,2.81,71536.0,-8.27,-13.11,-11.55,0,*59
1512950846.98,20423,2.81,71538.8,-8.25,-13.01,-11.55,0,*5B
1512950848.22,20424,2.81,71542.8,-8.25,-12.75,-11.41,0,*5B
1512950849.45,20425,2.81,71538.0,-8.25,-12.65,-11.41,0,*5B
1512950850.7,20426,2.81,71542.5,-8.25,-12.65,-11.33,0,*5D
1512950851.94,20427,2.81,71542.3,-8.25,-12.57,-11.41,0,*58
1512950853.18,20428,2.81,71538.5,-8.25,-12.65,-11.41,0,*56
1512950854.41,20429,2.81,71540.0,-8.25,-12.65,-11.41,0,*57
1512950855.67,20430,2.81,71542.0,-8.27,-12.65,-11.45,0,*59
1512950856.9,20431,2.81,71542.5,-8.25,-12.57,-11.41,0,*5F
1512950858.14,20432,2.81,71542.3,-8.25,-12.71,-11.41,0,*58
1512950859.38,20433,2.81,71542.8,-8.25,-12.57,-11.41,0,*5D
1512950860.61,20434,2.81,71546.0,-8.25,-12.57,-11.45,0,*5E
1512950861.87,20435,2.81,71546.5,-8.25,-12.53,-11.55,0,*5A
1512950863.13,20436,2.81,71550.3,-8.27,-12.29,-11.55,0,*56
1512950864.37,20437,2.81,71550.5,-8.25,-12.25,-11.67,0,*58
1512950865.63,20438,2.81,71548.5,-8.25,-12.11,-11.73,0,*55
1512950866.89,20439,2.81,71550.0,-8.25,-11.97,-11.85,0,*50
1512950868.12,20440,2.81,71554.5,-8.25,-12.11,-12.03,0,*5E
1512950869.36,20441,2.81,71552.0,-8.25,-12.25,-12.11,0,*5B
1512950870.63,20442,2.81,71554.8,-8.23,-12.35,-12.39,0,*55
1512950871.89,20443,2.81,71558.3,-8.23,-12.53,-12.47,0,*5D
1512950873.18,20444,2.81,71558.8,-8.23,-12.79,-12.71,0,*57
1512950874.39,20445,2.81,71558.0,-8.21,-13.07,-13.07,0,*5C
1512950875.63,20446,2.81,71556.5,-8.23,-13.19,-13.11,0,*55
1512950876.86,20447,2.81,71558.3,-8.23,-13.47,-13.23,0,*5E
1512950878.07,20448,2.81,71558.3,-8.21,-13.51,-13.47,0,*56
1512950879.3,20449,2.81,71558.0,-8.23,-13.69,-13.93,0,*57
1512950880.56,20450,2.81,71560.8,-8.23,-13.65,-14.05,0,*5B
1512950881.77,20451,2.81,71566.5,-8.21,-13.69,-14.33,0,*51
1512950883.0,20452,2.81,71560.5,-8.21,-13.47,-14.55,0,*5E
1512950884.21,20453,2.81,71560.0,-8.21,-13.47,-15.11,0,*5E
1512950885.47,20454,2.81,71560.3,-8.23,-13.47,-15.35,0,*5D
1512950886.73,20455,2.81,71566.8,-8.23,-13.55,-15.81,0,*50
1512950887.99,20456,2.81,71566.0,-8.23,-13.93,-16.23,0,*52
1512950889.26,20457,2.81,71564.0,-8.23,-14.11,-16.27,0,*5A
1512950890.54,20458,2.81,71562.8,-8.23,-14.55,-16.23,0,*51
1512950891.83,20459,2.81,71560.3,-8.23,-14.79,-16.09,0,*56
1512950893.1,20460,2.81,71558.3,-8.23,-14.55,-15.53,0,*5E
1512950894.37,20461,2.81,71554.0,-8.23,-14.23,-15.57,0,*5A
1512950895.64,20462,2.81,71546.0,-8.23,-14.23,-15.81,0,*52
1512950896.93,20463,2.81,71546.3,-8.23,-14.55,-15.35,0,*5D
1512950898.17,20464,2.81,71548.3,-8.23,-14.33,-14.65,0,*5E
1512950899.44,20465,2.81,71538.5,-8.23,-13.51,-15.43,0,*59
1512950900.7,20466,2.81,71538.3,-8.23,-14.33,-17.63,0,*59
1512950901.96,20467,2.81,71532.5,-8.23,-15.25,-18.93,0,*5E
1512950903.17,20468,2.81,71512.5,-8.21,-15.71,-19.91,0,*51
1512950904.4,20469,2.81,71518.5,-8.23,-16.89,-21.13,0,*57
1512950905.63,20470,2.81,71524.5,-8.21,-17.79,-21.09,0,*58